Weather History for Crestview, FL

Change the Weather History Date:

Saturday, April 12, 2014

  Actual Average Record
Temperature  
Mean Temperature 64 °F -  
Max Temperature 82 °F 79 °F 88 °F (1992)
Min Temperature 46 °F 54 °F 33 °F (1989)
Degree Days  
Heating Degree Days 1    
Growing Degree Days 14 (Base 50)    
Moisture  
Dew Point 51 °F    
Average Humidity 66    
Maximum Humidity 93    
Minimum Humidity 33    
Precipitation  
Precipitation 0.00 in - - ()
Sea Level Pressure  
Sea Level Pressure 30.16 in    
Wind  
Wind Speed 3 mph (SSE)    
Max Wind Speed 15 mph    
Max Gust Speed 22 mph    
Visibility 8 miles    
Events      
Averages and records for this station are not official NWS values.
T = Trace of Precipitation, MM = Missing Value Source: NWS Daily Summary

Daily Weather History Graph

Daily Weather History Graph

Search for Another Location

Airport:

Trip Planner

Search our weather history database for the weather conditions in past years. The results will help you decide how hot, cold, wet, or windy it might be!

Date:

Astronomy

Apr. 12, 2014 Rise Set
Actual Time 6:21 AM CDT 7:12 PM CDT
Civil Twilight 5:57 AM CDT 7:36 PM CDT
Nautical Twilight 5:28 AM CDT 8:05 PM CDT
Astronomical Twilight 4:58 AM CDT 8:35 PM CDT
Moon 4:58 PM CDT (4/12) 4:37 AM CDT (4/12)
Length of Visible Light 13h 39m
Length of Day
12h 50m
Waxing Gibbous, 93% of the Moon is Illuminated
Apr 12
Waxing Gibbous
Apr 15
Full
Apr 22
Last Quarter
Apr 29
New
May 6
First Quarter

Hourly Weather History & Observations

Time (CDT) Temp. Windchill Dew Point Humidity Pressure Visibility Wind Dir Wind Speed Gust Speed Precip Events Conditions
12:53 AM 51.1 °F - 48.9 °F 92% 30.17 in 6.0 mi Calm Calm - N/A   Clear
1:53 AM 50.0 °F - 48.0 °F 93% 30.17 in 5.0 mi Calm Calm - N/A   Clear
2:53 AM 48.9 °F - 46.9 °F 93% 30.16 in 6.0 mi Calm Calm - N/A   Clear
3:53 AM 48.0 °F - 46.0 °F 93% 30.16 in 6.0 mi Calm Calm - N/A   Clear
4:53 AM 46.0 °F 43.9 °F 44.1 °F 93% 30.17 in 4.0 mi ENE 4.6 mph - N/A   Clear
5:53 AM 46.9 °F - 45.0 °F 93% 30.18 in 5.0 mi Calm Calm - N/A   Clear
6:53 AM 48.0 °F - 46.0 °F 93% 30.19 in 5.0 mi Calm Calm - N/A   Clear
7:53 AM 55.9 °F - 52.0 °F 87% 30.21 in 8.0 mi Calm Calm - N/A   Clear
8:53 AM 66.9 °F - 57.0 °F 70% 30.21 in 10.0 mi ENE 3.5 mph - N/A   Clear
9:53 AM 73.0 °F - 55.9 °F 55% 30.21 in 10.0 mi Variable 3.5 mph - N/A   Clear
10:53 AM 79.0 °F - 52.0 °F 39% 30.21 in 10.0 mi SE 9.2 mph - N/A   Clear
11:53 AM 79.0 °F - 50.0 °F 36% 30.19 in 10.0 mi South 9.2 mph - N/A   Clear
12:53 PM 81.0 °F - 48.9 °F 33% 30.17 in 10.0 mi Variable 3.5 mph - N/A   Clear
1:53 PM 82.0 °F - 52.0 °F 35% 30.16 in 10.0 mi South 10.4 mph 21.9 mph N/A   Clear
2:53 PM 82.9 °F - 52.0 °F 34% 30.14 in 10.0 mi South 10.4 mph 17.3 mph N/A   Clear
3:53 PM 81.0 °F - 51.1 °F 35% 30.12 in 10.0 mi SSW 15.0 mph 20.7 mph N/A   Clear
4:53 PM 81.0 °F - 51.1 °F 35% 30.11 in 10.0 mi SSW 11.5 mph - N/A   Clear
5:53 PM 79.0 °F - 51.1 °F 38% 30.11 in 10.0 mi South 13.8 mph - N/A   Clear
6:53 PM 75.0 °F - 55.9 °F 51% 30.11 in 10.0 mi South 10.4 mph - N/A   Clear
7:53 PM 71.1 °F - 55.0 °F 57% 30.12 in 10.0 mi South 4.6 mph - N/A   Clear
8:53 PM 66.9 °F - 55.9 °F 68% 30.12 in 10.0 mi Calm Calm - N/A   Clear
9:53 PM 61.0 °F - 55.9 °F 83% 30.13 in 10.0 mi Calm Calm - N/A   Clear
10:53 PM 57.9 °F - 55.0 °F 90% 30.12 in 9.0 mi Calm Calm - N/A   Clear
11:53 PM 57.0 °F - 55.0 °F 93% 30.12 in 7.0 mi Calm Calm - N/A   Clear